EW0531 Weather Reports


Display with metric or nautical units.
time (UTC)temp
F
wind
direction
speed
MPH
gust
MPH
rain 1hr
in
rain 24hr
in
rain mn
in
humidity
%
barometer
mb
20260906180537 70 174 5.0 13.0 0.00 0.00 0.00 74 1017.3
20260906180113 70 132 3.0 11.0 0.00 0.00 0.00 73 1017.3
20260906175540 70 244 3.0 9.0 0.00 0.00 0.00 73 1017.3
20260906175040 70 117 3.0 11.0 0.00 0.00 0.00 73 1017.3
20260906174554 70 159 5.0 11.0 0.00 0.00 0.00 73 1017.3
20260906174037 71 169 4.0 10.0 0.00 0.00 0.00 73 1017.5
20260906173541 71 144 2.0 10.0 0.00 0.00 0.00 73 1017.5
20260906173106 71 134 3.0 10.0 0.00 0.00 0.00 73 1017.6
20260906172541 71 169 3.0 10.0 0.00 0.00 0.00 74 1017.6
20260906172037 71 169 2.0 10.0 0.00 0.00 0.00 74 1017.7
20260906171604 71 158 4.0 11.0 0.00 0.00 0.00 74 1017.8
20260906171036 71 108 5.0 12.0 0.00 0.00 0.00 74 1017.9
20260906170539 71 144 5.0 12.0 0.00 0.00 0.00 74 1017.9
20260906170059 71 152 4.0 12.0 0.00 0.00 0.00 74 1018.0
20260906165534 71 192 4.0 12.0 0.00 0.00 0.00 72 1018.0
20260906165040 72 162 4.0 10.0 0.00 0.00 0.00 72 1017.8
20260906164555 72 132 5.0 12.0 0.00 0.00 0.00 73 1017.8
20260906164036 71 154 5.0 14.0 0.00 0.00 0.00 73 1018.0
20260906163537 72 150 6.0 14.0 0.00 0.00 0.00 73 1018.0
20260906163123 72 182 6.0 16.0 0.00 0.00 0.00 72 1018.0
20260906162537 72 166 5.0 16.0 0.00 0.00 0.00 71 1018.0
20260906162037 72 182 7.0 15.0 0.00 0.00 0.00 71 1018.0
20260906161559 73 138 5.0 15.0 0.00 0.00 0.00 70 1018.0
20260906161036 73 182 5.0 14.0 0.00 0.00 0.00 70 1018.1
20260906160536 74 191 6.0 15.0 0.00 0.00 0.00 69 1018.0
20260906160059 74 138 7.0 15.0 0.00 0.00 0.00 67 1018.1
20260906155537 75 190 3.0 13.0 0.00 0.00 0.00 66 1018.1
20260906155037 74 160 5.0 13.0 0.00 0.00 0.00 64 1018.1
20260906154604 75 138 5.0 11.0 0.00 0.00 0.00 63 1018.2
20260906154037 75 153 4.0 10.0 0.00 0.00 0.00 62 1018.3
20260906153537 75 152 5.0 10.0 0.00 0.00 0.00 63 1018.4
20260906153113 75 155 3.0 10.0 0.00 0.00 0.00 62 1018.5
20260906152536 74 142 3.0 9.0 0.00 0.00 0.00 65 1018.4
20260906152037 74 144 5.0 9.0 0.00 0.00 0.00 66 1018.4
20260906151604 74 147 3.0 8.0 0.00 0.00 0.00 67 1018.5
20260906151040 73 164 3.0 9.0 0.00 0.00 0.00 69 1018.5
20260906150536 72 115 2.0 10.0 0.00 0.00 0.00 71 1018.6
20260906150106 72 115 5.0 11.0 0.00 0.00 0.00 72 1018.8
20260906145537 71 165 4.0 16.0 0.00 0.00 0.00 74 1018.9
20260906145037 71 126 7.0 16.0 0.00 0.00 0.00 73 1019.1
20260906144559 71 136 4.0 11.0 0.00 0.00 0.00 73 1019.1
20260906144040 71 158 4.0 10.0 0.00 0.00 0.00 72 1019.2
20260906143539 71 97 4.0 10.0 0.00 0.00 0.00 72 1019.1
20260906143057 71 107 3.0 12.0 0.00 0.00 0.00 72 1019.2
20260906142537 71 223 3.0 12.0 0.00 0.00 0.00 74 1019.4
20260906142038 71 127 4.0 12.0 0.00 0.00 0.00 74 1019.5
20260906141557 71 141 5.0 12.0 0.00 0.00 0.00 74 1019.5
20260906141037 71 97 5.0 12.0 0.00 0.00 0.00 74 1019.6
20260906140537 71 171 5.0 12.0 0.00 0.00 0.00 73 1019.8
20260906140107 71 161 3.0 12.0 0.00 0.00 0.00 73 1019.8
20260906135537 71 136 5.0 12.0 0.00 0.00 0.00 73 1019.9
20260906135036 71 159 4.0 12.0 0.00 0.00 0.00 72 1019.8
20260906134600 71 180 6.0 12.0 0.00 0.00 0.00 72 1019.9
20260906134037 72 163 5.0 12.0 0.00 0.00 0.00 71 1020.0
20260906133538 72 185 4.0 12.0 0.00 0.00 0.00 70 1020.0
20260906133121 72 178 4.0 14.0 0.00 0.00 0.00 70 1020.0
20260906132540 72 121 4.0 14.0 0.00 0.00 0.00 68 1019.9
20260906132036 73 115 5.0 13.0 0.00 0.00 0.00 66 1019.9
20260906131616 73 148 3.0 10.0 0.00 0.00 0.00 66 1019.9
20260906131037 74 155 4.0 10.0 0.00 0.00 0.00 64 1020.0
20260906130538 74 186 4.0 10.0 0.00 0.00 0.00 63 1020.0
20260906130107 75 173 4.0 10.0 0.00 0.00 0.00 63 1020.0
20260906125538 75 150 3.0 12.0 0.00 0.00 0.00 59 1020.0
20260906125039 75 124 5.0 12.0 0.00 0.00 0.00 58 1020.1
20260906124557 76 144 4.0 9.0 0.00 0.00 0.00 60 1020.1
20260906124038 76 126 4.0 9.0 0.00 0.00 0.00 59 1020.2
20260906123538 76 148 4.0 9.0 0.00 0.00 0.00 60 1020.2
20260906123057 77 140 3.0 9.0 0.00 0.00 0.00 58 1020.2
20260906122537 77 155 3.0 8.0 0.00 0.00 0.00 59 1020.3
20260906122037 76 181 3.0 9.0 0.00 0.00 0.00 61 1020.2
20260906121601 75 190 4.0 9.0 0.00 0.00 0.00 61 1020.2
20260906121038 75 178 4.0 8.0 0.00 0.00 0.00 62 1020.3
20260906120537 75 164 3.0 8.0 0.00 0.00 0.00 59 1020.3
20260906115537 74 115 3.0 9.0 0.00 0.00 0.00 64 1020.4
20260906115036 73 147 4.0 11.0 0.00 0.00 0.00 63 1020.4
20260906114559 73 117 3.0 11.0 0.00 0.00 0.00 64 1020.4
20260906114036 73 146 4.0 9.0 0.00 0.00 0.00 65 1020.7
20260906113534 73 115 4.0 10.0 0.00 0.00 0.00 64 1020.7
20260906113059 72 190 3.0 10.0 0.00 0.00 0.00 66 1020.9
20260906112537 72 151 4.0 10.0 0.00 0.00 0.00 67 1020.9
20260906112038 72 180 3.0 9.0 0.00 0.00 0.00 68 1020.9
20260906111603 71 132 4.0 10.0 0.00 0.00 0.00 69 1020.9
20260906111038 70 120 5.0 12.0 0.00 0.00 0.00 70 1021.0
20260906110538 70 163 4.0 12.0 0.00 0.00 0.00 72 1021.0
20260906110057 69 145 6.0 13.0 0.00 0.00 0.00 71 1021.1
20260906105536 69 179 5.0 13.0 0.00 0.00 0.00 72 1021.1
20260906105037 70 167 3.0 10.0 0.00 0.00 0.00 71 1021.1
20260906104554 70 126 4.0 10.0 0.00 0.00 0.00 71 1021.2
20260906104037 70 126 4.0 11.0 0.00 0.00 0.00 71 1021.3
20260906103537 70 142 4.0 11.0 0.00 0.00 0.00 71 1021.4
20260906103100 70 119 5.0 10.0 0.00 0.00 0.00 71 1021.4
20260906102537 70 153 5.0 12.0 0.00 0.00 0.00 71 1021.5
20260906102034 71 141 5.0 12.0 0.00 0.00 0.00 70 1021.6
20260906101559 71 157 5.0 13.0 0.00 0.00 0.00 69 1021.7
20260906101034 72 153 6.0 13.0 0.00 0.00 0.00 68 1021.8
20260906100537 72 173 4.0 13.0 0.00 0.00 0.00 68 1021.8
20260906100055 71 178 5.0 14.0 0.00 0.00 0.00 68 1021.7
20260906095538 71 178 5.0 14.0 0.00 0.00 0.00 68 1021.8
20260906095037 71 212 5.0 12.0 0.00 0.00 0.00 69 1021.7
20260906094619 71 180 6.0 12.0 0.00 0.00 0.00 69 1021.7
20260906094037 71 178 5.0 12.0 0.00 0.00 0.00 69 1021.8
20260906093537 71 210 3.0 11.0 0.00 0.00 0.00 69 1021.7
20260906093101 70 138 4.0 10.0 0.00 0.00 0.00 70 1021.9
20260906092537 70 78 4.0 14.0 0.00 0.00 0.00 69 1021.8
20260906092038 70 143 5.0 14.0 0.00 0.00 0.00 70 1021.8
20260906091559 71 136 6.0 13.0 0.00 0.00 0.00 69 1021.8
20260906091039 70 165 7.0 13.0 0.00 0.00 0.00 69 1021.8
20260906090536 70 93 4.0 11.0 0.00 0.00 0.00 69 1021.7
20260906090101 70 142 5.0 12.0 0.00 0.00 0.00 69 1021.8
20260906085537 70 153 4.0 12.0 0.00 0.00 0.00 69 1021.9
20260906085037 70 161 5.0 11.0 0.00 0.00 0.00 69 1021.9
20260906084556 70 209 4.0 11.0 0.00 0.00 0.00 70 1021.9
20260906084035 70 174 6.0 11.0 0.00 0.00 0.00 70 1021.8
20260906083537 69 121 4.0 13.0 0.00 0.00 0.00 71 1021.9
20260906083100 69 182 5.0 13.0 0.00 0.00 0.00 71 1021.8
20260906082537 69 199 4.0 13.0 0.00 0.00 0.00 71 1022.0
20260906082037 69 126 4.0 13.0 0.00 0.00 0.00 72 1021.9
20260906081557 69 146 5.0 13.0 0.00 0.00 0.00 72 1021.9
20260906081038 69 151 4.0 11.0 0.00 0.00 0.00 72 1021.9
20260906080537 69 127 3.0 10.0 0.00 0.00 0.00 72 1021.9
20260906080059 69 176 3.0 10.0 0.00 0.00 0.00 72 1021.9
20260906075534 68 130 3.0 10.0 0.00 0.00 0.00 72 1022.0
20260906075037 68 252 3.0 15.0 0.00 0.00 0.00 73 1022.0
20260906074610 67 137 3.0 15.0 0.00 0.00 0.00 73 1022.0
20260906074037 67 107 4.0 12.0 0.00 0.00 0.00 73 1022.1
20260906073537 67 131 6.0 12.0 0.00 0.00 0.00 73 1022.1
20260906073104 67 126 5.0 14.0 0.00 0.00 0.00 73 1022.0
20260906072537 67 144 5.0 14.0 0.00 0.00 0.00 73 1022.1
20260906072037 66 143 5.0 14.0 0.00 0.00 0.00 73 1022.1
20260906071602 66 143 3.0 11.0 0.00 0.00 0.00 74 1022.1
20260906071037 66 153 3.0 11.0 0.00 0.00 0.00 75 1022.2
20260906070537 66 186 5.0 12.0 0.00 0.00 0.00 75 1022.1
20260906070054 65 190 4.0 12.0 0.00 0.00 0.00 76 1022.2
20260906065537 65 144 4.0 9.0 0.00 0.00 0.00 77 1022.2
20260906065037 64 112 4.0 11.0 0.00 0.00 0.00 78 1022.2
20260906064558 64 177 5.0 11.0 0.00 0.00 0.00 79 1022.3
20260906064036 63 184 2.0 7.0 0.00 0.00 0.00 81 1022.3
20260906063537 62 0 1.0 7.0 0.00 0.00 0.00 83 1022.4
20260906063058 62 119 2.0 10.0 0.00 0.00 0.00 85 1022.4
20260906062534 60 168 4.0 10.0 0.00 0.00 0.00 87 1022.4
20260906062037 58 180 0.0 5.0 0.00 0.00 0.00 87 1022.5
20260906061602 57 134 0.0 5.0 0.00 0.00 0.00 86 1022.5
20260906061041 57 0 0.0 0.0 0.00 0.00 0.00 85 1022.5
20260906060536 57 0 0.0 0.0 0.00 0.00 0.00 85 1022.5
20260906060107 57 0 0.0 0.0 0.00 0.00 0.00 85 1022.7
20260906055537 57 0 0.0 0.0 0.00 0.00 0.00 84 1022.6
20260906055037 57 0 0.0 0.0 0.00 0.00 0.00 84 1022.6
20260906054601 57 0 0.0 0.0 0.00 0.00 0.00 84 1022.7
20260906054038 57 0 0.0 0.0 0.00 0.00 0.00 84 1022.8
20260906053536 57 0 0.0 0.0 0.00 0.00 0.00 83 1022.8
20260906053055 57 0 0.0 0.0 0.00 0.00 0.00 83 1022.8
20260906052541 57 0 0.0 0.0 0.00 0.00 0.00 83 1022.9
20260906052034 57 0 0.0 0.0 0.00 0.00 0.00 83 1022.9
20260906051602 57 0 0.0 0.0 0.00 0.00 0.00 83 1023.0
20260906051040 57 0 0.0 0.0 0.00 0.00 0.00 82 1022.9
20260906050537 57 0 0.0 0.0 0.00 0.00 0.00 82 1022.9
20260906050059 58 0 0.0 0.0 0.00 0.00 0.00 82 1023.0
20260906045538 58 0 0.0 0.0 0.00 0.00 0.00 81 1023.0
20260906045034 58 0 0.0 0.0 0.00 0.00 0.00 81 1023.0
20260906044555 58 0 0.0 0.0 0.00 0.00 0.00 81 1023.0
20260906044037 58 0 0.0 0.0 0.00 0.00 0.00 81 1023.1
20260906043536 58 0 0.0 0.0 0.00 0.00 0.00 81 1023.1
20260906043053 58 0 0.0 0.0 0.00 0.00 0.00 81 1023.1
20260906042536 58 0 0.0 0.0 0.00 0.00 0.00 81 1023.1
20260906042037 58 0 0.0 0.0 0.00 0.00 0.00 81 1023.2
20260906041557 59 0 0.0 0.0 0.00 0.00 0.00 81 1023.3
20260906041038 59 0 0.0 0.0 0.00 0.00 0.00 81 1023.3
20260906040536 59 0 0.0 0.0 0.00 0.00 0.00 81 1023.4
20260906040059 58 0 0.0 0.0 0.00 0.00 0.00 82 1023.4
20260906035537 58 0 0.0 0.0 0.00 0.00 0.00 82 1023.5
20260906035037 58 0 0.0 0.0 0.00 0.00 0.00 82 1023.4
20260906034555 58 0 0.0 0.0 0.00 0.00 0.00 82 1023.5
20260906034036 58 0 0.0 0.0 0.00 0.00 0.00 82 1023.6
20260906033541 58 0 0.0 0.0 0.00 0.00 0.00 82 1023.7
20260906033106 58 0 0.0 0.0 0.00 0.00 0.00 82 1023.7
20260906032537 58 0 0.0 0.0 0.00 0.00 0.00 81 1023.6
20260906032037 58 0 0.0 0.0 0.00 0.00 0.00 81 1023.7
20260906031559 59 0 0.0 0.0 0.00 0.00 0.00 81 1023.8
20260906031037 59 0 0.0 0.0 0.00 0.00 0.00 81 1023.8
20260906030537 59 0 0.0 0.0 0.00 0.00 0.00 81 1024.0
20260906030056 59 0 0.0 0.0 0.00 0.00 0.00 81 1024.0
20260906025536 59 0 0.0 0.0 0.00 0.00 0.00 81 1024.1
20260906025036 59 0 0.0 0.0 0.00 0.00 0.00 81 1024.1
20260906024604 59 0 0.0 0.0 0.00 0.00 0.00 81 1024.1
20260906024037 59 0 0.0 2.0 0.00 0.00 0.00 81 1024.2
20260906023537 59 0 0.0 2.0 0.00 0.00 0.00 81 1024.3
20260906023056 59 221 0.0 2.0 0.00 0.00 0.00 81 1024.3
20260906022539 59 0 0.0 2.0 0.00 0.00 0.00 81 1024.3
20260906022040 59 0 0.0 0.0 0.00 0.00 0.00 81 1024.4
20260906021600 59 0 0.0 0.0 0.00 0.00 0.00 81 1024.5
20260906021037 59 0 0.0 0.0 0.00 0.00 0.00 81 1024.5
20260906020536 59 0 0.0 0.0 0.00 0.00 0.00 81 1024.6
20260906020105 59 0 0.0 0.0 0.00 0.00 0.00 81 1024.5
20260906015536 59 0 0.0 0.0 0.00 0.00 0.00 81 1024.6
20260906015037 59 0 0.0 1.0 0.00 0.00 0.00 81 1024.5
20260906014608 59 0 0.0 1.0 0.00 0.00 0.00 81 1024.4
20260906014041 59 0 0.0 0.0 0.00 0.00 0.00 81 1024.5
20260906013538 59 0 0.0 0.0 0.00 0.00 0.00 81 1024.5
20260906013058 59 0 0.0 0.0 0.00 0.00 0.00 81 1024.6
20260906012536 58 0 0.0 2.0 0.00 0.00 0.00 81 1024.6
20260906012036 58 0 0.0 2.0 0.00 0.00 0.00 82 1024.8
20260906011610 58 0 0.0 2.0 0.00 0.00 0.00 82 1024.8
20260906011037 58 221 0.0 2.0 0.00 0.00 0.00 82 1024.7
20260906010536 58 0 0.0 2.0 0.00 0.00 0.00 82 1024.7
20260906010105 58 0 0.0 0.0 0.00 0.00 0.00 82 1024.8
20260906005539 58 0 0.0 0.0 0.00 0.00 0.00 82 1025.0
20260906005037 58 0 0.0 0.0 0.00 0.00 0.00 83 1024.8
20260906004601 58 0 0.0 0.0 0.00 0.00 0.00 83 1025.0
20260906004037 58 0 0.0 0.0 0.00 0.00 0.00 82 1024.9
20260906003537 58 0 0.0 0.0 0.00 0.00 0.00 82 1025.0
20260906003100 58 0 0.0 0.0 0.00 0.00 0.00 82 1025.1
20260906002536 58 0 0.0 0.0 0.00 0.00 0.00 82 1025.1
20260906002040 58 0 0.0 0.0 0.00 0.00 0.00 82 1025.2
20260906001601 57 0 0.0 0.0 0.00 0.00 0.00 83 1025.2
20260906001036 57 0 0.0 0.0 0.00 0.00 0.00 83 1025.3
20260906000537 57 0 0.0 0.0 0.00 0.00 0.00 83 1025.3
20260906000105 57 0 0.0 0.0 0.00 0.00 0.00 82 1025.3
20260905235541 57 0 0.0 0.0 0.00 0.00 0.00 82 1025.5
20260905235037 57 0 0.0 0.0 0.00 0.00 0.00 82 1025.6
20260905234603 57 0 0.0 0.0 0.00 0.00 0.00 82 1025.6
20260905234037 57 0 0.0 0.0 0.00 0.00 0.00 82 1025.7
20260905233537 57 0 0.0 0.0 0.00 0.00 0.00 82 1025.8
20260905233118 57 0 0.0 0.0 0.00 0.00 0.00 82 1025.7
20260905232536 57 0 0.0 0.0 0.00 0.00 0.00 82 1025.8
20260905232039 57 0 0.0 0.0 0.00 0.00 0.00 81 1025.9
20260905231558 57 0 0.0 2.0 0.00 0.00 0.00 81 1025.8
20260905231036 57 0 0.0 2.0 0.00 0.00 0.00 81 1025.8
20260905230536 57 0 0.0 2.0 0.00 0.00 0.00 81 1025.7
20260905230054 57 0 0.0 0.0 0.00 0.00 0.00 81 1025.7
20260905225536 57 0 0.0 0.0 0.00 0.00 0.00 80 1025.6
20260905225037 57 0 0.0 0.0 0.00 0.00 0.00 81 1025.6
20260905224617 57 0 0.0 0.0 0.00 0.00 0.00 81 1025.6
20260905224037 57 0 0.0 0.0 0.00 0.00 0.00 81 1025.6
20260905223536 57 0 0.0 0.0 0.00 0.00 0.00 80 1025.6
20260905223106 57 0 0.0 0.0 0.00 0.00 0.00 80 1025.4
20260905222537 57 0 0.0 0.0 0.00 0.00 0.00 79 1025.4
20260905222036 57 0 0.0 0.0 0.00 0.00 0.00 79 1025.5
20260905221559 57 0 0.0 0.0 0.00 0.00 0.00 79 1025.5
20260905221039 58 0 0.0 0.0 0.00 0.00 0.00 79 1025.6
20260905220537 58 0 0.0 0.0 0.00 0.00 0.00 78 1025.6
20260905220105 58 0 0.0 0.0 0.00 0.00 0.00 78 1025.6
20260905215537 58 0 0.0 0.0 0.00 0.00 0.00 78 1025.7
20260905215036 58 0 0.0 0.0 0.00 0.00 0.00 77 1025.6
20260905214600 59 0 0.0 1.0 0.00 0.00 0.00 77 1025.6
20260905214037 59 0 0.0 1.0 0.00 0.00 0.00 77 1025.6
20260905213537 59 0 0.0 1.0 0.00 0.00 0.00 77 1025.5
20260905213105 59 0 0.0 1.0 0.00 0.00 0.00 77 1025.6
20260905212537 60 0 0.0 1.0 0.00 0.00 0.00 77 1025.6
20260905212036 60 0 0.0 1.0 0.00 0.00 0.00 76 1025.6
20260905211559 60 0 0.0 1.0 0.00 0.00 0.00 76 1025.6
20260905211037 60 0 0.0 1.0 0.00 0.00 0.00 76 1025.5
20260905210537 60 0 0.0 1.0 0.00 0.00 0.00 76 1025.7
20260905210056 60 0 0.0 2.0 0.00 0.00 0.00 76 1025.6
20260905205536 60 0 0.0 2.0 0.00 0.00 0.00 76 1025.5
20260905205037 60 222 0.0 1.0 0.00 0.00 0.00 75 1025.6
20260905204556 61 0 0.0 2.0 0.00 0.00 0.00 75 1025.5
20260905204036 61 0 0.0 2.0 0.00 0.00 0.00 75 1025.5
20260905203536 61 0 1.0 2.0 0.00 0.00 0.00 74 1025.4
20260905203101 61 0 0.0 2.0 0.00 0.00 0.00 74 1025.5
20260905202537 61 222 0.0 2.0 0.00 0.00 0.00 74 1025.6
20260905202037 62 0 0.0 2.0 0.00 0.00 0.00 74 1025.8
20260905201609 62 0 0.0 2.0 0.00 0.00 0.00 73 1025.7
20260905201040 62 0 0.0 3.0 0.00 0.00 0.00 73 1025.7
20260905200536 62 0 0.0 3.0 0.00 0.00 0.00 73 1025.7
20260905200100 62 222 1.0 3.0 0.00 0.00 0.00 73 1025.8
20260905195537 62 222 1.0 4.0 0.00 0.00 0.00 73 1025.9
20260905195036 62 222 1.0 4.0 0.00 0.00 0.00 73 1025.8
20260905194601 63 222 2.0 3.0 0.00 0.00 0.00 72 1025.7
20260905194037 63 222 1.0 4.0 0.00 0.00 0.00 72 1025.8
20260905193536 63 222 2.0 4.0 0.00 0.00 0.00 72 1025.7
20260905193056 63 209 1.0 3.0 0.00 0.00 0.00 71 1025.7
20260905192537 63 275 1.0 4.0 0.00 0.00 0.00 71 1025.5
20260905192037 63 193 2.0 4.0 0.00 0.00 0.00 71 1025.5
20260905191557 63 199 2.0 4.0 0.00 0.00 0.00 70 1025.6
20260905191037 63 215 2.0 4.0 0.00 0.00 0.00 70 1025.5
20260905190537 64 221 2.0 4.0 0.00 0.00 0.00 69 1025.4
20260905190120 64 224 1.0 5.0 0.00 0.00 0.00 69 1025.3
20260905185539 64 232 2.0 5.0 0.00 0.00 0.00 69 1025.3
20260905185036 64 238 2.0 6.0 0.00 0.00 0.00 69 1025.3
20260905184622 64 227 3.0 6.0 0.00 0.00 0.00 68 1025.3
20260905184036 65 207 3.0 7.0 0.00 0.00 0.00 68 1025.3
20260905183539 65 206 3.0 7.0 0.00 0.00 0.00 68 1025.2
20260905183059 65 261 2.0 7.0 0.00 0.00 0.00 68 1025.1
20260905182537 65 229 3.0 9.0 0.00 0.00 0.00 68 1025.1
20260905182037 65 252 5.0 9.0 0.00 0.00 0.00 68 1025.2
20260905181602 66 198 3.0 6.0 0.00 0.00 0.00 67 1025.3
20260905181036 66 205 2.0 9.0 0.00 0.00 0.00 66 1025.2